DW9580 Weather Reports


time (UTC)temp
C
wind
direction
speed
KPH
gust
KPH
rain 1hr
cm
rain 24hr
cm
rain mn
cm
humidity
%
barometer
mb
20260508151705 16 92 1.6 6.4 0.00 0.18 0.13 50 1015.4
20260508151205 16 92 1.6 11.3 0.00 0.18 0.13 50 1015.4
20260508150205 16 92 3.2 11.3 0.00 0.18 0.13 50 1015.4
20260508145205 16 92 3.2 11.3 0.03 0.18 0.13 48 1015.5
20260508144705 17 89 3.2 9.7 0.03 0.18 0.13 48 1015.4
20260508144205 17 92 1.6 6.4 0.03 0.18 0.13 48 1015.4
20260508143705 16 93 0.0 6.4 0.03 0.18 0.13 48 1015.5
20260508143205 16 93 1.6 12.9 0.03 0.20 0.13 49 1015.5
20260508142705 16 93 3.2 12.9 0.03 0.20 0.13 50 1015.5
20260508142209 16 93 3.2 8.0 0.03 0.20 0.13 49 1015.6
20260508141705 16 84 3.2 8.0 0.03 0.20 0.13 50 1015.6
20260508141207 16 84 3.2 11.3 0.03 0.20 0.13 48 1015.6
20260508140705 16 82 3.2 11.3 0.03 0.20 0.13 51 1015.7
20260508140205 16 82 1.6 11.3 0.00 0.18 0.10 49 1015.7
20260508135705 16 81 1.6 6.4 0.00 0.18 0.10 49 1015.7
20260508135206 16 81 3.2 6.4 0.00 0.18 0.10 48 1015.7
20260508134705 16 80 1.6 11.3 0.00 0.18 0.10 48 1015.6
20260508134206 17 80 1.6 14.5 0.00 0.18 0.10 48 1015.7
20260508133705 17 80 3.2 14.5 0.00 0.20 0.10 47 1015.7
20260508133205 17 80 1.6 9.7 0.00 0.20 0.10 49 1015.7
20260508132706 16 71 1.6 9.7 0.00 0.20 0.10 46 1015.7
20260508132205 16 71 1.6 8.0 0.00 0.20 0.10 45 1015.7
20260508131706 17 71 1.6 9.7 0.00 0.20 0.10 45 1015.8
20260508131205 17 71 1.6 9.7 0.00 0.20 0.10 47 1015.7
20260508130205 17 62 3.2 14.5 0.00 0.20 0.10 49 1015.8
20260508124705 17 105 3.2 9.7 0.00 0.20 0.10 47 1015.8
20260508124205 17 53 3.2 12.9 0.00 0.20 0.10 46 1015.8
20260508123705 16 52 3.2 12.9 0.00 0.20 0.10 51 1015.8
20260508123205 16 49 3.2 12.9 0.00 0.20 0.10 52 1015.8
20260508122705 16 88 3.2 11.3 0.00 0.20 0.10 53 1015.8
20260508122205 16 53 3.2 9.7 0.00 0.20 0.10 53 1015.9
20260508121205 16 42 3.2 17.7 0.00 0.23 0.10 52 1015.9
20260508120205 16 92 1.6 12.9 0.03 0.23 0.10 59 1015.8
20260508115705 16 89 3.2 12.9 0.03 0.23 0.10 58 1015.9
20260508115205 16 87 4.8 12.9 0.03 0.23 0.10 59 1016.0
20260508114705 16 88 3.2 11.3 0.03 0.23 0.10 60 1016.0
20260508114205 15 61 1.6 8.0 0.03 0.23 0.10 62 1016.0
20260508113705 15 48 1.6 8.0 0.03 0.23 0.10 61 1016.0
20260508113205 15 46 1.6 9.7 0.03 0.23 0.10 63 1016.0
20260508112705 15 46 1.6 9.7 0.03 0.23 0.10 63 1016.0
20260508112205 15 46 1.6 9.7 0.03 0.23 0.10 62 1016.1
20260508111706 15 28 1.6 11.3 0.03 0.23 0.10 64 1016.0
20260508110705 15 26 1.6 11.3 0.00 0.23 0.08 64 1016.0
20260508110205 15 90 3.2 11.3 0.00 0.23 0.08 64 1016.0
20260508105707 15 90 3.2 9.7 0.00 0.23 0.08 63 1016.0
20260508104707 15 90 1.6 6.4 0.00 0.23 0.08 64 1016.0
20260508104205 15 78 1.6 6.4 0.00 0.23 0.08 64 1015.9
20260508103705 15 76 1.6 6.4 0.00 0.23 0.08 63 1016.0
20260508102205 15 69 1.6 9.7 0.00 0.23 0.08 60 1016.0
20260508101205 15 69 1.6 9.7 0.03 0.23 0.08 65 1016.1
20260508100205 15 68 1.6 8.0 0.03 0.23 0.08 66 1016.0
20260508095706 15 72 0.0 3.2 0.03 0.23 0.08 67 1016.0
20260508095206 15 72 0.0 4.8 0.03 0.23 0.08 69 1016.1
20260508094705 15 80 0.0 11.3 0.03 0.23 0.08 69 1016.1
20260508094206 15 80 0.0 11.3 0.03 0.23 0.08 68 1016.0
20260508093705 15 80 1.6 8.0 0.03 0.23 0.08 69 1016.1
20260508093206 15 80 1.6 6.4 0.03 0.23 0.08 70 1016.1
20260508092705 15 76 0.0 0.0 0.03 0.23 0.08 71 1016.0
20260508092206 15 76 0.0 0.0 0.00 0.23 0.05 72 1016.0
20260508091706 15 79 0.0 0.0 0.00 0.23 0.05 72 1016.1
20260508091205 14 79 0.0 0.0 0.00 0.23 0.05 73 1016.1
20260508090705 14 80 0.0 0.0 0.00 0.23 0.05 74 1016.1
20260508090205 14 80 0.0 0.0 0.00 0.23 0.05 73 1016.1
20260508085205 13 74 0.0 0.0 0.00 0.23 0.05 73 1016.1
20260508084705 13 73 0.0 0.0 0.00 0.23 0.05 74 1016.1
20260508084205 13 68 0.0 0.0 0.00 0.23 0.05 75 1016.1
20260508083705 13 69 0.0 0.0 0.00 0.23 0.05 78 1016.1
20260508083205 13 74 0.0 0.0 0.00 0.23 0.05 78 1016.0
20260508082705 13 74 0.0 0.0 0.00 0.23 0.05 78 1016.0
20260508082205 13 73 0.0 0.0 0.00 0.23 0.05 79 1016.0
20260508081705 13 73 0.0 0.0 0.00 0.23 0.05 80 1016.0
20260508080704 12 73 0.0 0.0 0.00 0.23 0.05 80 1016.0
20260508080205 12 73 0.0 0.0 0.00 0.23 0.05 81 1016.0
20260508075705 12 46 0.0 0.0 0.00 0.23 0.05 81 1016.0
20260508075207 12 46 0.0 0.0 0.00 0.23 0.05 81 1016.0
20260508074705 12 46 0.0 0.0 0.00 0.23 0.05 81 1016.0
20260508074206 12 46 0.0 0.0 0.00 0.23 0.05 81 1016.0
20260508073705 11 46 0.0 0.0 0.00 0.23 0.05 81 1016.0
20260508073205 11 46 0.0 0.0 0.00 0.23 0.05 82 1016.0
20260508072707 11 46 0.0 0.0 0.00 0.23 0.05 82 1016.0
20260508072205 11 46 0.0 0.0 0.00 0.23 0.05 82 1015.9
20260508071705 11 46 0.0 0.0 0.00 0.23 0.05 82 1015.9
20260508071208 11 46 0.0 0.0 0.00 0.23 0.05 82 1015.8
20260508070705 11 46 0.0 0.0 0.00 0.23 0.05 82 1015.8
20260508070205 11 46 0.0 0.0 0.00 0.23 0.05 82 1015.8
20260508065706 11 46 0.0 0.0 0.03 0.23 0.05 82 1015.8
20260508065205 11 46 0.0 0.0 0.03 0.23 0.05 82 1015.7
20260508064706 11 46 0.0 0.0 0.03 0.23 0.05 82 1015.7
20260508064205 11 46 0.0 0.0 0.03 0.23 0.05 82 1015.6
20260508063705 10 46 0.0 0.0 0.03 0.23 0.05 82 1015.6
20260508063205 10 46 0.0 0.0 0.03 0.23 0.05 82 1015.6
20260508062706 10 46 0.0 0.0 0.03 0.23 0.05 82 1015.6
20260508062205 10 46 0.0 0.0 0.03 0.23 0.05 82 1015.5
20260508060705 10 46 0.0 0.0 0.03 0.23 0.05 82 1015.4
20260508060205 10 46 0.0 0.0 0.03 0.23 0.05 82 1015.4
20260508055705 10 46 0.0 0.0 0.00 0.23 0.05 82 1015.4
20260508055206 10 46 0.0 0.0 0.00 0.23 0.05 82 1015.4
20260508054706 10 46 0.0 0.0 0.00 0.23 0.05 82 1015.4
20260508054209 10 46 0.0 0.0 0.00 0.23 0.05 81 1015.4
20260508053705 10 42 0.0 0.0 0.00 0.23 0.05 81 1015.4
20260508053206 9 42 0.0 0.0 0.00 0.23 0.05 81 1015.3
20260508052706 9 43 0.0 0.0 0.00 0.23 0.05 81 1015.3
20260508051705 9 43 0.0 0.0 0.00 0.23 0.05 81 1015.2
20260508050205 9 43 0.0 0.0 0.00 0.23 0.05 81 1015.2
20260508045206 8 40 0.0 0.0 0.00 0.23 0.05 81 1015.2
20260508044705 8 62 0.0 0.0 0.00 0.23 0.05 81 1015.1
20260508044206 8 62 0.0 0.0 0.00 0.23 0.05 81 1015.1
20260508043205 8 62 0.0 0.0 0.00 0.23 0.05 81 1015.0
20260508042705 8 62 0.0 0.0 0.00 0.23 0.05 81 1015.0
20260508042204 8 62 0.0 0.0 0.00 0.23 0.05 81 1015.0
20260508041705 8 62 0.0 0.0 0.00 0.23 0.05 81 1015.1
20260508041205 8 62 0.0 0.0 0.00 0.23 0.05 81 1015.0
20260508040205 8 62 0.0 0.0 0.03 0.23 0.05 82 1014.9
20260508035705 9 62 0.0 0.0 0.03 0.23 0.05 82 1014.9
20260508035205 9 62 0.0 0.0 0.03 0.23 0.05 82 1014.9
20260508034705 9 62 0.0 0.0 0.03 0.23 0.05 82 1014.9
20260508034206 9 62 0.0 0.0 0.03 0.25 0.05 82 1014.9
20260508033705 9 62 0.0 0.0 0.03 0.25 0.05 82 1014.9
20260508033205 9 62 0.0 0.0 0.03 0.25 0.05 82 1014.9
20260508032705 9 62 0.0 0.0 0.03 0.25 0.05 82 1014.9
20260508032205 9 62 0.0 0.0 0.03 0.25 0.05 82 1014.9
20260508031205 9 62 0.0 0.0 0.00 0.23 0.03 82 1014.9
20260508030705 9 62 0.0 0.0 0.00 0.23 0.03 82 1014.9
20260508030206 9 62 0.0 0.0 0.00 0.23 0.03 82 1014.9
20260508025706 9 62 0.0 0.0 0.00 0.23 0.03 82 1014.9
20260508024705 9 62 0.0 0.0 0.00 0.23 0.03 82 1014.9
20260508024205 9 62 0.0 0.0 0.00 0.23 0.03 82 1014.9
20260508023705 9 62 0.0 0.0 0.00 0.23 0.03 82 1015.0
20260508022705 9 62 0.0 0.0 0.00 0.23 0.03 82 1015.0
20260508022205 9 62 0.0 0.0 0.00 0.23 0.03 82 1015.0
20260508021205 9 62 0.0 0.0 0.00 0.23 0.03 82 1014.9
20260508020705 9 62 0.0 0.0 0.00 0.23 0.03 82 1015.0
20260508020205 10 62 0.0 0.0 0.00 0.23 0.03 82 1015.0
20260508014705 10 62 0.0 0.0 0.00 0.23 0.03 82 1014.9
20260508014205 10 62 0.0 0.0 0.00 0.23 0.03 82 1014.8
20260508013705 10 62 0.0 0.0 0.00 0.23 0.03 82 1014.7
20260508012706 10 62 0.0 0.0 0.00 0.23 0.03 82 1014.8
20260508012205 10 62 0.0 0.0 0.00 0.23 0.03 82 1014.8
20260508011706 10 62 0.0 0.0 0.00 0.23 0.03 82 1014.8
20260508011205 10 62 0.0 0.0 0.00 0.23 0.03 82 1014.8
20260508010705 10 62 0.0 0.0 0.00 0.23 0.03 82 1014.9
20260508010205 10 62 0.0 0.0 0.00 0.23 0.03 82 1014.9
20260508005706 10 62 0.0 0.0 0.00 0.23 0.03 82 1014.9
20260508005206 10 62 0.0 0.0 0.00 0.23 0.03 82 1014.9
20260508004206 10 62 0.0 0.0 0.00 0.23 0.03 82 1015.0
20260508003705 10 62 0.0 0.0 0.00 0.23 0.03 82 1015.0
20260508002706 10 62 0.0 0.0 0.00 0.23 0.03 82 1014.9
20260508002206 10 62 0.0 0.0 0.03 0.23 0.03 82 1014.9
20260508001721 10 62 0.0 0.0 0.03 0.25 0.03 82 1015.0
20260508001205 10 62 0.0 0.0 0.03 0.25 0.03 82 1015.0
20260508000705 10 62 0.0 0.0 0.03 0.25 0.03 82 1015.0
20260508000211 10 62 0.0 0.0 0.03 0.25 0.03 82 1015.0
20260507235704 10 62 0.0 0.0 0.03 0.25 0.03 82 1015.0
20260507235205 10 62 0.0 0.0 0.03 0.25 0.03 82 1015.0
20260507234710 10 62 0.0 0.0 0.03 0.25 0.03 82 1015.1
20260507233710 10 62 0.0 0.0 0.03 0.25 0.03 82 1015.2
20260507233205 10 62 0.0 0.0 0.03 0.25 0.03 82 1015.2
20260507232705 10 62 0.0 0.0 0.00 0.23 0.00 82 1015.2
20260507232205 10 62 0.0 0.0 0.00 0.23 0.00 82 1015.3
20260507231705 10 62 0.0 0.0 0.00 0.23 0.00 82 1015.3
20260507231206 10 62 0.0 0.0 0.00 0.23 0.00 82 1015.3
20260507230706 10 62 0.0 0.0 0.00 0.23 0.00 82 1015.3
20260507225705 10 62 0.0 0.0 0.00 0.23 0.00 82 1015.3
20260507224705 10 62 0.0 0.0 0.00 0.23 0.00 81 1015.3
20260507224205 10 62 0.0 0.0 0.00 0.23 0.00 81 1015.2
20260507223710 10 62 0.0 0.0 0.00 0.23 0.00 81 1015.2
20260507222706 10 62 0.0 0.0 0.00 0.23 0.00 81 1015.2
20260507222205 10 62 0.0 0.0 0.00 0.23 0.00 81 1015.2
20260507221205 11 62 0.0 0.0 0.00 0.23 0.00 81 1015.2
20260507220205 11 62 0.0 0.0 0.00 0.23 0.23 80 1015.2
20260507215705 11 62 0.0 0.0 0.00 0.23 0.23 80 1015.2
20260507215205 11 62 0.0 0.0 0.03 0.23 0.23 79 1015.2
20260507214705 11 62 0.0 0.0 0.03 0.23 0.23 78 1015.1
20260507214205 11 62 0.0 0.0 0.03 0.23 0.23 78 1015.1
20260507213205 11 62 0.0 0.0 0.03 0.25 0.23 78 1015.2
20260507212705 11 62 0.0 0.0 0.03 0.25 0.23 77 1015.1
20260507212205 11 62 0.0 0.0 0.03 0.25 0.23 76 1015.1
20260507211706 11 62 0.0 0.0 0.03 0.25 0.23 76 1015.1
20260507211205 11 62 0.0 0.0 0.03 0.25 0.23 77 1015.1
20260507205705 11 62 0.0 0.0 0.00 0.23 0.23 76 1015.0
20260507205205 11 62 0.0 0.0 0.00 0.23 0.23 76 1015.0
20260507204706 11 62 0.0 0.0 0.00 0.23 0.23 75 1014.9
20260507204205 11 62 0.0 0.0 0.00 0.23 0.23 75 1014.9
20260507203707 11 62 0.0 0.0 0.00 0.23 0.23 75 1014.9
20260507203213 11 62 0.0 0.0 0.00 0.23 0.23 75 1014.9
20260507202706 11 62 0.0 0.0 0.00 0.23 0.23 75 1014.9
20260507202205 11 62 0.0 0.0 0.00 0.23 0.23 75 1014.8
20260507201705 12 62 0.0 0.0 0.00 0.23 0.23 74 1014.8
20260507201205 12 62 0.0 0.0 0.00 0.23 0.23 74 1014.8
20260507200705 12 62 0.0 0.0 0.00 0.23 0.23 74 1014.7
20260507200206 12 62 0.0 0.0 0.00 0.23 0.23 73 1014.7
20260507195205 12 62 0.0 0.0 0.00 0.23 0.23 72 1014.6
20260507194705 12 62 0.0 0.0 0.00 0.23 0.23 72 1014.6
20260507194205 12 62 0.0 0.0 0.00 0.23 0.23 71 1014.6
20260507193705 12 62 0.0 0.0 0.00 0.23 0.23 71 1014.6
20260507193205 12 62 0.0 0.0 0.00 0.23 0.23 70 1014.5
20260507192705 12 62 0.0 0.0 0.00 0.23 0.23 70 1014.5
20260507192205 12 62 0.0 0.0 0.00 0.23 0.23 70 1014.5
20260507191705 12 62 0.0 0.0 0.00 0.23 0.23 69 1014.5
20260507191205 12 62 0.0 0.0 0.00 0.23 0.23 68 1014.5
20260507190706 12 62 0.0 0.0 0.03 0.23 0.23 68 1014.5
20260507190231 13 62 0.0 0.0 0.03 0.23 0.23 67 1014.5
20260507185705 13 62 0.0 0.0 0.03 0.23 0.23 67 1014.5
20260507184705 13 62 0.0 0.0 0.03 0.23 0.23 66 1014.4
20260507183205 13 62 0.0 0.0 0.03 0.23 0.23 64 1014.4
20260507182208 13 62 0.0 0.0 0.03 0.23 0.23 63 1014.4
20260507181704 13 62 0.0 0.0 0.03 0.23 0.23 62 1014.4
20260507181205 13 62 0.0 0.0 0.00 0.23 0.20 61 1014.4
20260507180705 13 62 0.0 0.0 0.00 0.23 0.20 62 1014.3
20260507180205 13 62 0.0 0.0 0.00 0.23 0.20 62 1014.3
20260507175705 13 62 0.0 0.0 0.00 0.23 0.20 61 1014.3
20260507175205 13 62 0.0 0.0 0.00 0.23 0.20 61 1014.3
20260507174705 13 62 0.0 0.0 0.00 0.23 0.20 61 1014.2
20260507174205 13 62 0.0 0.0 0.00 0.23 0.20 60 1014.2
20260507173708 13 62 0.0 0.0 0.00 0.23 0.20 62 1014.2
20260507173205 13 62 0.0 0.0 0.00 0.23 0.20 62 1014.1
20260507172205 13 62 0.0 0.0 0.00 0.23 0.20 62 1014.1
20260507171706 13 62 0.0 0.0 0.03 0.23 0.20 61 1014.0
20260507171205 13 62 0.0 0.0 0.03 0.23 0.20 61 1014.0
20260507170705 13 62 0.0 0.0 0.03 0.23 0.20 60 1014.0
20260507170205 13 62 0.0 0.0 0.03 0.23 0.20 58 1014.0
20260507165705 13 62 0.0 0.0 0.03 0.23 0.20 58 1014.0
20260507165205 13 63 0.0 0.0 0.03 0.23 0.20 59 1014.0
20260507164705 13 63 0.0 0.0 0.03 0.23 0.20 60 1014.0
20260507164208 13 63 0.0 0.0 0.03 0.23 0.20 59 1014.0
20260507163711 13 63 0.0 0.0 0.03 0.23 0.20 59 1014.0
20260507163205 14 63 0.0 0.0 0.03 0.23 0.20 59 1014.0
20260507162705 14 63 0.0 0.0 0.03 0.23 0.20 59 1014.0
20260507161708 14 63 0.0 0.0 0.00 0.23 0.18 60 1014.0
20260507161205 14 63 0.0 0.0 0.00 0.23 0.18 60 1014.0
20260507160705 14 63 0.0 0.0 0.00 0.23 0.18 61 1014.0
20260507155205 14 64 0.0 0.0 0.00 0.23 0.18 60 1013.9
20260507154705 14 28 0.0 0.0 0.00 0.23 0.18 60 1013.9
20260507154206 14 14 0.0 0.0 0.00 0.23 0.18 59 1013.9
20260507153705 14 14 0.0 0.0 0.00 0.23 0.18 58 1014.0
20260507153205 14 14 0.0 0.0 0.03 0.23 0.18 58 1014.0
20260507152705 14 14 0.0 0.0 0.03 0.23 0.18 58 1014.0
20260507152205 14 14 0.0 0.0 0.03 0.23 0.18 59 1013.9